TimeEDT,TemperatureF,Dew PointF,Humidity,Sea Level PressureIn,VisibilityMPH,Wind Direction,Wind SpeedMPH,Gust SpeedMPH,PrecipitationIn,Events,Conditions,WindDirDegrees,DateUTC
12:56 AM,73.9,70.0,87,30.16,10.0,East,5.8,-,N/A,,Clear,100,2013-09-16 04:56:00
1:56 AM,75.0,71.1,87,30.15,10.0,East,4.6,-,N/A,,Clear,100,2013-09-16 05:56:00
2:56 AM,75.0,72.0,90,30.14,10.0,ESE,3.5,-,N/A,,Clear,110,2013-09-16 06:56:00
3:56 AM,73.0,71.1,93,30.13,10.0,SE,5.8,-,N/A,,Clear,140,2013-09-16 07:56:00
4:56 AM,73.9,73.0,97,30.12,9.0,Calm,Calm,-,N/A,,Clear,0,2013-09-16 08:56:00
5:37 AM,73.4,71.6,94,30.11,1.5,Calm,Calm,-,N/A,,Clear,0,2013-09-16 09:37:00
5:54 AM,73.4,73.4,100,30.11,2.0,SE,3.5,-,0.00,Rain,Light Rain,140,2013-09-16 09:54:00
5:56 AM,73.9,73.0,97,30.13,3.0,Calm,Calm,-,0.00,Rain,Light Rain,0,2013-09-16 09:56:00
6:04 AM,73.4,73.4,100,30.11,1.8,Calm,Calm,-,0.00,,Clear,0,2013-09-16 10:04:00
6:11 AM,73.4,73.4,100,30.12,0.5,Calm,Calm,-,0.00,Fog,Fog,0,2013-09-16 10:11:00
6:30 AM,73.4,73.4,100,30.12,1.0,Calm,Calm,-,0.00,,Clear,0,2013-09-16 10:30:00
6:50 AM,71.6,71.6,100,30.12,3.0,Calm,Calm,-,0.00,,Partly Cloudy,0,2013-09-16 10:50:00
6:56 AM,73.0,72.0,96,30.13,1.5,Calm,Calm,-,0.00,,Scattered Clouds,0,2013-09-16 10:56:00
7:14 AM,73.4,73.4,100,30.12,3.0,SE,3.5,-,N/A,,Partly Cloudy,140,2013-09-16 11:14:00
7:56 AM,73.0,72.0,96,30.14,7.0,SE,3.5,-,N/A,,Clear,130,2013-09-16 11:56:00
8:56 AM,75.9,73.9,94,30.14,10.0,South,3.5,-,N/A,,Clear,170,2013-09-16 12:56:00
9:56 AM,77.0,73.9,90,30.14,10.0,WSW,6.9,-,N/A,,Mostly Cloudy,250,2013-09-16 13:56:00
10:56 AM,75.0,71.1,87,30.13,10.0,SW,6.9,-,N/A,,Scattered Clouds,230,2013-09-16 14:56:00
11:56 AM,84.0,72.0,67,30.12,10.0,WNW,6.9,-,N/A,,Partly Cloudy,290,2013-09-16 15:56:00
12:56 PM,84.0,70.0,63,30.10,10.0,WNW,8.1,-,N/A,,Mostly Cloudy,290,2013-09-16 16:56:00
1:56 PM,79.0,70.0,74,30.08,10.0,NW,11.5,-,0.00,,Overcast,310,2013-09-16 17:56:00
2:56 PM,75.0,71.1,87,30.08,7.0,WNW,4.6,-,0.02,Rain,Light Rain,300,2013-09-16 18:56:00
3:56 PM,79.0,71.1,77,30.06,10.0,SW,5.8,-,0.00,,Mostly Cloudy,220,2013-09-16 19:56:00
4:56 PM,80.1,69.1,69,30.05,10.0,SW,6.9,-,N/A,,Clear,220,2013-09-16 20:56:00
5:56 PM,81.0,70.0,69,30.06,10.0,WSW,4.6,-,N/A,,Clear,250,2013-09-16 21:56:00
6:56 PM,79.0,72.0,79,30.06,10.0,SSW,3.5,-,N/A,,Clear,210,2013-09-16 22:56:00
7:56 PM,75.9,72.0,87,30.08,10.0,SSW,3.5,-,N/A,,Clear,210,2013-09-16 23:56:00
8:56 PM,73.9,72.0,93,30.10,10.0,WSW,5.8,-,N/A,,Clear,250,2013-09-17 00:56:00
9:25 PM,75.2,69.8,83,30.10,10.0,North,15.0,24.2,N/A,,Mostly Cloudy,360,2013-09-17 01:25:00
9:36 PM,73.4,69.8,88,30.10,10.0,North,16.1,25.3,N/A,,Overcast,360,2013-09-17 01:36:00
9:56 PM,73.0,68.0,84,30.13,10.0,North,19.6,25.3,N/A,,Overcast,360,2013-09-17 01:56:00
10:42 PM,71.6,66.2,83,30.13,10.0,NNE,16.1,26.5,N/A,,Overcast,20,2013-09-17 02:42:00
10:56 PM,72.0,66.0,81,30.15,10.0,North,16.1,24.2,N/A,,Overcast,10,2013-09-17 02:56:00
11:56 PM,72.0,66.0,81,30.15,10.0,NNE,13.8,19.6,N/A,,Overcast,30,2013-09-17 03:56:00